User: anonymous   Login
Location: Unspecified
(0.0000°N, 0.0000°E)
Time: 17:16:10
(UTC+00:00)
Language:

ELEKTRO-L - Orbit

View from above orbital plane
View from above orbital plane
View from above satellite
View from above satellite

Ground track
Ground track

The orbit data is extracted from the following two-line orbital elements,

1 37344U 11001A   16043.90924853 -.00000115  00000-0  00000+0 0  9995
2 37344   1.4566  79.8857 0004994 155.4565 310.3759  1.00273368 18597
Epoch (UTC): 12 February 2016 21:49:19
Eccentricity: 0.0004994
inclination: 1.4566°
perigee height: 35765 km
apogee height: 35807 km
right ascension of ascending node: 79.8857°
argument of perigee: 155.4565°
revolutions per day: 1.00273368
mean anomaly at epoch: 310.3759°
orbit number at epoch: 1859

The dashed part of the orbit path shows where the satellite is in the earth's shadow,  

DLR